Location: Kissimmee Park Observatory
(28.2088°N, 81.3686°W)
Time: 07:21:57
(UTC-05:00)

Hubble Space Telescope - Visible Passes

Search period start: 26 January 2022 00:00
Search period end: 05 February 2022 00:00
Orbit: 534 x 538 km, 28.5° (Epoch: 26 January)

Date Brightness Start Highest point End Pass type
(mag) Time Alt. Az. Time Alt. Az. Time Alt. Az.
27 Jan 3.1 18:49:08 10° S 18:50:28 11° SSE 18:51:46 10° SE visible
27 Jan 3.5 20:27:19 10° SW 20:28:05 15° SW 20:28:05 15° SW visible
28 Jan 2.9 18:36:46 10° S 18:39:06 15° SSE 18:41:27 10° ESE visible
28 Jan 2.9 20:15:54 10° WSW 20:17:37 23° SW 20:17:37 23° SW visible
29 Jan 2.7 18:24:50 10° SSW 18:27:46 19° SSE 18:30:41 10° ESE visible
29 Jan 2.1 20:04:32 10° WSW 20:07:07 35° SW 20:07:07 35° SW visible
30 Jan 1.3 19:53:13 10° WSW 19:56:36 54° SW 19:56:36 54° SW visible
31 Jan 0.7 19:41:55 10° WSW 19:46:01 75° S 19:46:03 75° SSE visible
01 Feb 0.6 19:30:39 10° W 19:34:45 83° S 19:35:29 59° E visible
02 Feb 0.7 19:19:23 10° W 19:23:30 89° S 19:24:55 40° E visible
03 Feb 0.7 19:08:07 10° W 19:12:15 87° N 19:14:21 28° E visible
03 Feb 4.0 20:49:18 10° W 20:49:38 12° W 20:49:38 12° W visible
04 Feb 0.7 18:56:52 10° W 19:00:59 85° N 19:03:48 20° E visible
04 Feb 3.5 20:38:03 10° W 20:39:06 17° W 20:39:06 17° W visible
